QPF
0.04 0.04 0.04 0.04 0.04 0.05 0.07 0.07 0.09 0.17 0.22 0.15 0.06 0.05 0.05 0.03 0.02 0.02 0.02 0.01 0.02 0.03 0.05 0.10 0.05 0.03 0.02 0.04 0.02 0.00 0.00 0.00 0.00 0.00 0.00 0.00 0.00 0.00 0.00 0.00 0.00 0.00 0.00
0.06 0.07 0.10 0.09 0.07 0.09 0.11 0.15 0.26 0.42 0.40 0.22 0.14 0.14 0.15 0.13 0.14 0.11 0.05 0.02 0.03 0.06 0.09 0.11 0.06 0.01 0.01 0.07 0.09 0.02 0.00 0.01 0.02 0.00 0.00 0.00 0.00 0.00 0.00 0.00 0.00 0.00 0.00
0.07 0.08 0.08 0.09 0.11 0.15 0.22 0.34 0.53 0.68 0.65 0.50 0.36 0.23 0.17 0.18 0.17 0.09 0.07 0.05 0.06 0.10 0.16 0.17 0.11 0.04 0.03 0.07 0.08 0.01 0.00 0.01 0.04 0.02 0.00 0.01 0.00 0.00 0.00 0.00 0.00 0.00 0.00
0.06 0.05 0.05 0.04 0.07 0.13 0.26 0.44 0.58 0.66 0.68 0.61 0.44 0.29 0.19 0.17 0.13 0.08 0.08 0.08 0.09 0.14 0.21 0.19 0.15 0.11 0.10 0.08 0.04 0.03 0.02 0.02 0.04 0.01 0.01 0.05 0.04 0.01 0.00 0.00 0.00 0.00 0.00
0.09 0.11 0.15 0.20 0.25 0.32 0.43 0.51 0.56 0.64 0.71 0.66 0.57 0.46 0.34 0.25 0.20 0.14 0.10 0.07 0.08 0.12 0.16 0.16 0.28 0.34 0.24 0.15 0.11 0.08 0.03 0.01 0.01 0.01 0.00 0.03 0.03 0.01 0.00 0.00 0.00 0.00 0.00
0.20 0.25 0.29 0.34 0.38 0.46 0.57 0.69 0.73 0.87 0.98 0.89 0.70 0.54 0.43 0.35 0.28 0.20 0.15 0.08 0.06 0.06 0.11 0.19 0.33 0.34 0.25 0.17 0.11 0.05 0.03 0.01 0.01 0.01 0.00 0.01 0.00 0.00 0.00 0.00 0.00 0.00 0.00
0.15 0.23 0.35 0.53 0.56 0.52 0.55 0.76 1.02 1.24 1.25 1.09 0.85 0.64 0.49 0.40 0.34 0.25 0.17 0.11 0.08 0.08 0.10 0.16 0.19 0.18 0.15 0.15 0.13 0.07 0.04 0.02 0.00 0.01 0.01 0.01 0.00 0.00 0.00 0.00 0.00 0.00 0.00
0.03 0.04 0.08 0.16 0.18 0.14 0.12 0.18 0.30 0.43 0.48 0.45 0.41 0.38 0.31 0.26 0.24 0.20 0.16 0.12 0.10 0.08 0.07 0.09 0.07 0.05 0.04 0.04 0.08 0.08 0.05 0.02 0.00 0.00 0.01 0.01 0.01 0.01 0.03 0.03 0.02 0.01 0.00
0.00 0.00 0.01 0.02 0.03 0.03 0.05 0.10 0.14 0.18 0.18 0.14 0.11 0.11 0.10 0.09 0.09 0.09 0.08 0.06 0.06 0.05 0.04 0.06 0.06 0.04 0.02 0.01 0.02 0.04 0.03 0.02 0.01 0.00 0.01 0.04 0.07 0.04 0.07 0.07 0.02 0.01 0.00
0.00 0.00 0.02 0.05 0.09 0.13 0.15 0.14 0.12 0.10 0.06 0.05 0.05 0.05 0.04 0.04 0.03 0.02 0.02 0.02 0.03 0.04 0.03 0.02 0.02 0.01 0.01 0.00 0.00 0.00 0.00 0.01 0.01 0.02 0.03 0.07 0.14 0.09 0.09 0.08 0.05 0.03 0.01
0.01 0.01 0.01 0.05 0.09 0.11 0.09 0.07 0.05 0.02 0.01 0.01 0.01 0.01 0.02 0.03 0.03 0.02 0.01 0.01 0.01 0.01 0.00 0.00 0.00 0.00 0.00 0.00 0.00 0.00 0.00 0.00 0.01 0.03 0.06 0.10 0.15 0.14 0.09 0.07 0.07 0.08 0.06
0.01 0.01 0.01 0.01 0.02 0.04 0.04 0.02 0.01 0.00 0.00 0.00 0.00 0.00 0.00 0.00 0.00 0.00 0.00 0.00 0.00 0.00 0.00 0.00 0.00 0.00 0.00 0.00 0.00 0.00 0.00 0.00 0.00 0.03 0.08 0.12 0.15 0.16 0.15 0.10 0.08 0.12 0.11
0.00 0.00 0.00 0.00 0.00 0.02 0.05 0.05 0.02 0.01 0.00 0.00 0.00 0.00 0.00 0.00 0.00 0.00 0.00 0.00 0.00 0.00 0.00 0.00 0.00 0.00 0.00 0.00 0.00 0.00 0.00 0.01 0.01 0.02 0.06 0.08 0.13 0.21 0.25 0.18 0.15 0.15 0.15
0.00 0.00 0.00 0.00 0.00 0.00 0.01 0.01 0.01 0.01 0.00 0.00 0.00 0.00 0.00 0.00 0.00 0.00 0.00 0.00 0.00 0.00 0.00 0.00 0.00 0.00 0.00 0.00 0.00 0.00 0.00 0.01 0.04 0.06 0.08 0.11 0.16 0.22 0.30 0.28 0.24 0.23 0.17
0.00 0.00 0.00 0.00 0.00 0.00 0.01 0.02 0.01 0.00 0.00 0.00 0.00 0.00 0.00 0.00 0.00 0.00 0.00 0.00 0.00 0.00 0.00 0.00 0.00 0.00 0.00 0.00 0.00 0.00 0.01 0.01 0.02 0.04 0.05 0.07 0.10 0.12 0.16 0.22 0.26 0.26 0.21
0.00 0.00 0.00 0.00 0.00 0.00 0.01 0.02 0.02 0.01 0.00 0.00 0.00 0.00 0.00 0.00 0.00 0.00 0.00 0.00 0.00 0.00 0.00 0.00 0.00 0.00 0.00 0.00 0.00 0.01 0.01 0.01 0.01 0.01 0.01 0.01 0.01 0.04 0.07 0.09 0.13 0.17 0.20
0.00 0.00 0.00 0.00 0.00 0.00 0.00 0.02 0.01 0.01 0.01 0.00 0.01 0.01 0.01 0.01 0.01 0.02 0.01 0.00 0.00 0.00 0.00 0.00 0.00 0.00 0.00 0.00 0.00 0.00 0.00 0.00 0.00 0.00 0.00 0.00 0.00 0.00 0.01 0.01 0.02 0.03 0.03
0.00 0.00 0.00 0.00 0.00 0.00 0.00 0.01 0.01 0.01 0.01 0.01 0.03 0.03 0.03 0.05 0.06 0.04 0.01 0.01 0.01 0.00 0.00 0.00 0.00 0.00 0.00 0.00 0.00 0.00 0.00 0.00 0.00 0.00 0.00 0.00 0.00 0.00 0.00 0.00 0.00 0.00 0.00
0.00 0.00 0.00 0.00 0.01 0.00 0.00 0.00 0.01 0.02 0.01 0.02 0.04 0.04 0.04 0.04 0.05 0.06 0.04 0.04 0.04 0.02 0.01 0.00 0.00 0.00 0.00 0.00 0.00 0.00 0.00 0.00 0.00 0.00 0.00 0.00 0.00 0.00 0.00 0.00 0.00 0.00 0.00
0.00 0.01 0.00 0.01 0.01 0.01 0.01 0.01 0.01 0.01 0.02 0.02 0.02 0.02 0.02 0.02 0.02 0.03 0.03 0.04 0.04 0.03 0.01 0.00 0.00 0.00 0.00 0.00 0.00 0.00 0.00 0.00 0.00 0.00 0.00 0.00 0.00 0.00 0.00 0.00 0.00 0.00 0.00
0.00 0.00 0.01 0.03 0.05 0.02 0.01 0.01 0.01 0.01 0.03 0.06 0.06 0.03 0.02 0.01 0.01 0.00 0.00 0.01 0.02 0.02 0.01 0.01 0.00 0.00 0.00 0.00 0.00 0.00 0.00 0.00 0.00 0.00 0.00 0.00 0.00 0.00 0.00 0.00 0.00 0.00 0.00
0.00 0.00 0.00 0.02 0.06 0.05 0.04 0.02 0.02 0.04 0.06 0.09 0.07 0.04 0.03 0.02 0.01 0.01 0.00 0.00 0.00 0.00 0.00 0.00 0.00 0.00 0.00 0.01 0.00 0.00 0.00 0.00 0.00 0.00 0.00 0.00 0.00 0.00 0.00 0.00 0.00 0.00 0.00
0.00 0.00 0.00 0.01 0.02 0.04 0.08 0.09 0.09 0.09 0.09 0.10 0.06 0.05 0.05 0.04 0.02 0.02 0.01 0.01 0.00 0.00 0.00 0.00 0.00 0.00 0.00 0.00 0.01 0.00 0.00 0.00 0.00 0.00 0.00 0.00 0.00 0.00 0.00 0.00 0.00 0.00 0.00
0.00 0.00 0.00 0.01 0.01 0.03 0.06 0.09 0.12 0.11 0.08 0.08 0.07 0.07 0.08 0.07 0.05 0.03 0.02 0.01 0.01 0.00 0.00 0.00 0.00 0.00 0.00 0.00 0.01 0.00 0.00 0.00 0.00 0.00 0.00 0.00 0.00 0.00 0.00 0.00 0.00 0.00 0.00
0.00 0.00 0.00 0.00 0.00 0.01 0.02 0.03 0.05 0.05 0.04 0.03 0.03 0.04 0.07 0.09 0.07 0.05 0.03 0.02 0.01 0.01 0.00 0.00 0.00 0.00 0.00 0.00 0.01 0.01 0.01 0.00 0.00 0.00 0.00 0.00 0.00 0.00 0.00 0.00 0.00 0.00 0.00
0.00 0.00 0.00 0.00 0.00 0.00 0.00 0.01 0.01 0.01 0.01 0.01 0.01 0.01 0.01 0.03 0.04 0.03 0.02 0.01 0.01 0.00 0.00 0.00 0.00 0.00 0.00 0.00 0.00 0.01 0.01 0.01 0.00 0.00 0.00 0.00 0.00 0.00 0.00 0.00 0.00 0.00 0.00
MSLP
1012.39 1012.52 1012.64 1012.72 1012.76 1012.76 1012.74 1012.74 1012.78 1012.90 1013.09 1013.35 1013.66 1013.99 1014.31 1014.58 1014.79 1014.94 1015.03 1015.09 1015.14 1015.20 1015.29 1015.43 1015.61 1015.83 1016.08 1016.33 1016.57 1016.79 1016.98 1017.12 1017.21 1017.25 1017.23 1017.16 1017.03 1016.85 1016.62 1016.35 1016.05 1015.72 1015.36
1012.85 1012.91 1012.95 1012.94 1012.89 1012.81 1012.73 1012.67 1012.68 1012.77 1012.95 1013.20 1013.51 1013.82 1014.12 1014.36 1014.54 1014.66 1014.73 1014.78 1014.83 1014.90 1015.02 1015.19 1015.40 1015.65 1015.91 1016.16 1016.40 1016.61 1016.79 1016.93 1017.03 1017.09 1017.11 1017.09 1017.02 1016.90 1016.71 1016.48 1016.19 1015.85 1015.47
1013.33 1013.31 1013.27 1013.19 1013.07 1012.92 1012.79 1012.70 1012.69 1012.77 1012.94 1013.19 1013.48 1013.78 1014.04 1014.24 1014.38 1014.46 1014.50 1014.53 1014.57 1014.66 1014.79 1014.98 1015.20 1015.46 1015.71 1015.96 1016.18 1016.38 1016.54 1016.68 1016.81 1016.91 1016.98 1017.02 1017.03 1016.97 1016.85 1016.65 1016.39 1016.06 1015.67
1013.78 1013.68 1013.57 1013.43 1013.26 1013.08 1012.93 1012.83 1012.81 1012.89 1013.06 1013.30 1013.57 1013.83 1014.05 1014.21 1014.31 1014.34 1014.35 1014.36 1014.39 1014.47 1014.61 1014.80 1015.03 1015.27 1015.51 1015.73 1015.93 1016.10 1016.26 1016.41 1016.55 1016.70 1016.83 1016.94 1017.02 1017.04 1016.98 1016.83 1016.60 1016.29 1015.91
1014.18 1014.03 1013.87 1013.68 1013.48 1013.29 1013.12 1013.02 1013.01 1013.09 1013.25 1013.48 1013.72 1013.95 1014.13 1014.24 1014.29 1014.29 1014.27 1014.26 1014.29 1014.36 1014.49 1014.67 1014.88 1015.10 1015.31 1015.50 1015.67 1015.82 1015.96 1016.11 1016.28 1016.46 1016.64 1016.82 1016.96 1017.04 1017.04 1016.95 1016.76 1016.47 1016.10
1014.55 1014.36 1014.16 1013.95 1013.74 1013.53 1013.37 1013.27 1013.26 1013.34 1013.49 1013.69 1013.90 1014.09 1014.23 1014.31 1014.33 1014.30 1014.27 1014.25 1014.26 1014.33 1014.45 1014.61 1014.79 1014.98 1015.14 1015.29 1015.42 1015.53 1015.66 1015.80 1015.97 1016.18 1016.39 1016.61 1016.80 1016.93 1016.98 1016.93 1016.78 1016.53 1016.20
1014.91 1014.70 1014.48 1014.26 1014.04 1013.83 1013.67 1013.57 1013.55 1013.61 1013.75 1013.92 1014.09 1014.25 1014.35 1014.40 1014.40 1014.37 1014.33 1014.31 1014.32 1014.39 1014.49 1014.63 1014.77 1014.91 1015.02 1015.11 1015.19 1015.26 1015.35 1015.47 1015.63 1015.83 1016.06 1016.29 1016.50 1016.66 1016.74 1016.73 1016.62 1016.42 1016.15
1015.30 1015.08 1014.86 1014.63 1014.39 1014.18 1014.01 1013.90 1013.87 1013.91 1014.01 1014.14 1014.28 1014.40 1014.49 1014.52 1014.52 1014.49 1014.46 1014.46 1014.48 1014.54 1014.62 1014.72 1014.82 1014.90 1014.96 1014.99 1015.00 1015.02 1015.06 1015.14 1015.27 1015.44 1015.65 1015.87 1016.07 1016.24 1016.33 1016.35 1016.29 1016.15 1015.94
1015.73 1015.52 1015.30 1015.06 1014.82 1014.59 1014.40 1014.27 1014.21 1014.21 1014.28 1014.38 1014.49 1014.58 1014.65 1014.69 1014.69 1014.69 1014.68 1014.69 1014.72 1014.78 1014.84 1014.90 1014.95 1014.97 1014.95 1014.92 1014.86 1014.82 1014.80 1014.83 1014.90 1015.03 1015.19 1015.37 1015.55 1015.69 1015.79 1015.83 1015.81 1015.73 1015.61
1016.22 1016.03 1015.80 1015.56 1015.30 1015.06 1014.84 1014.68 1014.58 1014.55 1014.58 1014.65 1014.73 1014.81 1014.87 1014.92 1014.94 1014.96 1014.98 1015.01 1015.04 1015.09 1015.13 1015.15 1015.14 1015.09 1015.01 1014.91 1014.79 1014.68 1014.60 1014.57 1014.58 1014.64 1014.75 1014.87 1014.99 1015.11 1015.20 1015.25 1015.27 1015.26 1015.22
1016.77 1016.59 1016.37 1016.11 1015.83 1015.56 1015.31 1015.12 1014.99 1014.93 1014.92 1014.96 1015.03 1015.10 1015.16 1015.22 1015.26 1015.30 1015.34 1015.38 1015.41 1015.44 1015.45 1015.43 1015.36 1015.26 1015.13 1014.96 1014.79 1014.63 1014.50 1014.41 1014.36 1014.36 1014.40 1014.45 1014.52 1014.60 1014.66 1014.72 1014.77 1014.81 1014.86
1017.33 1017.16 1016.93 1016.66 1016.36 1016.06 1015.79 1015.57 1015.42 1015.34 1015.31 1015.33 1015.38 1015.45 1015.52 1015.58 1015.64 1015.69 1015.73 1015.77 1015.79 1015.79 1015.77 1015.70 1015.60 1015.45 1015.27 1015.08 1014.87 1014.68 1014.52 1014.39 1014.30 1014.24 1014.22 1014.21 1014.22 1014.24 1014.28 1014.32 1014.39 1014.47 1014.57
1017.87 1017.70 1017.46 1017.16 1016.84 1016.53 1016.24 1016.01 1015.85 1015.76 1015.73 1015.74 1015.79 1015.85 1015.91 1015.97 1016.03 1016.08 1016.11 1016.13 1016.13 1016.10 1016.04 1015.95 1015.81 1015.64 1015.44 1015.24 1015.03 1014.84 1014.67 1014.53 1014.42 1014.32 1014.25 1014.19 1014.14 1014.11 1014.10 1014.13 1014.19 1014.29 1014.42
1018.33 1018.15 1017.89 1017.57 1017.24 1016.92 1016.63 1016.41 1016.26 1016.17 1016.15 1016.16 1016.20 1016.26 1016.32 1016.37 1016.41 1016.43 1016.44 1016.43 1016.40 1016.34 1016.25 1016.13 1015.98 1015.80 1015.62 1015.43 1015.25 1015.09 1014.94 1014.82 1014.71 1014.60 1014.50 1014.40 1014.30 1014.22 1014.16 1014.15 1014.18 1014.27 1014.41
1018.66 1018.46 1018.18 1017.85 1017.51 1017.20 1016.94 1016.74 1016.61 1016.54 1016.53 1016.56 1016.60 1016.65 1016.69 1016.72 1016.73 1016.72 1016.70 1016.65 1016.58 1016.49 1016.38 1016.24 1016.10 1015.94 1015.79 1015.64 1015.51 1015.40 1015.31 1015.22 1015.14 1015.04 1014.93 1014.80 1014.66 1014.53 1014.43 1014.36 1014.35 1014.40 1014.51
1018.83 1018.61 1018.31 1017.99 1017.66 1017.37 1017.14 1016.97 1016.88 1016.85 1016.86 1016.90 1016.94 1016.98 1017.00 1017.01 1016.99 1016.94 1016.88 1016.80 1016.70 1016.58 1016.45 1016.32 1016.18 1016.06 1015.95 1015.86 1015.79 1015.75 1015.72 1015.69 1015.64 1015.57 1015.47 1015.33 1015.17 1015.00 1014.84 1014.73 1014.66 1014.66 1014.72
1018.86 1018.61 1018.31 1017.99 1017.69 1017.43 1017.24 1017.13 1017.08 1017.08 1017.12 1017.17 1017.22 1017.25 1017.25 1017.23 1017.18 1017.10 1017.01 1016.90 1016.77 1016.64 1016.51 1016.38 1016.27 1016.17 1016.11 1016.07 1016.07 1016.09 1016.13 1016.15 1016.15 1016.11 1016.03 1015.90 1015.73 1015.53 1015.34 1015.17 1015.05 1014.99 1014.99
1018.76 1018.51 1018.22 1017.92 1017.65 1017.44 1017.30 1017.23 1017.22 1017.25 1017.31 1017.37 1017.42 1017.44 1017.43 1017.39 1017.32 1017.23 1017.12 1016.99 1016.86 1016.72 1016.59 1016.48 1016.38 1016.31 1016.28 1016.29 1016.34 1016.40 1016.49 1016.56 1016.60 1016.60 1016.54 1016.42 1016.26 1016.06 1015.84 1015.64 1015.48 1015.37 1015.31
1018.60 1018.36 1018.09 1017.83 1017.60 1017.44 1017.34 1017.31 1017.33 1017.39 1017.46 1017.53 1017.58 1017.59 1017.58 1017.54 1017.46 1017.37 1017.26 1017.13 1017.00 1016.87 1016.75 1016.64 1016.55 1016.50 1016.48 1016.51 1016.57 1016.66 1016.77 1016.87 1016.94 1016.97 1016.94 1016.85 1016.71 1016.52 1016.31 1016.10 1015.91 1015.77 1015.68
1018.43 1018.22 1017.99 1017.78 1017.60 1017.48 1017.42 1017.42 1017.46 1017.53 1017.60 1017.67 1017.71 1017.73 1017.72 1017.68 1017.62 1017.54 1017.45 1017.34 1017.23 1017.11 1016.99 1016.89 1016.80 1016.74 1016.71 1016.72 1016.78 1016.86 1016.97 1017.07 1017.16 1017.21 1017.21 1017.15 1017.04 1016.88 1016.70 1016.50 1016.32 1016.17 1016.06
1018.31 1018.15 1017.98 1017.82 1017.69 1017.61 1017.57 1017.58 1017.63 1017.69 1017.75 1017.81 1017.85 1017.87 1017.87 1017.85 1017.82 1017.77 1017.70 1017.62 1017.53 1017.43 1017.32 1017.21 1017.10 1017.02 1016.96 1016.94 1016.96 1017.01 1017.09 1017.18 1017.27 1017.33 1017.35 1017.32 1017.25 1017.14 1017.00 1016.84 1016.69 1016.55 1016.44
1018.25 1018.16 1018.05 1017.95 1017.87 1017.82 1017.80 1017.81 1017.84 1017.89 1017.93 1017.98 1018.01 1018.03 1018.05 1018.05 1018.05 1018.03 1018.00 1017.96 1017.89 1017.81 1017.70 1017.57 1017.45 1017.33 1017.23 1017.16 1017.12 1017.13 1017.17 1017.23 1017.29 1017.35 1017.39 1017.40 1017.37 1017.30 1017.21 1017.10 1016.98 1016.88 1016.79
1018.26 1018.24 1018.20 1018.16 1018.12 1018.09 1018.08 1018.08 1018.09 1018.11 1018.14 1018.16 1018.19 1018.21 1018.24 1018.27 1018.30 1018.32 1018.33 1018.31 1018.27 1018.19 1018.08 1017.95 1017.79 1017.63 1017.49 1017.36 1017.28 1017.23 1017.22 1017.24 1017.28 1017.33 1017.38 1017.40 1017.41 1017.38 1017.33 1017.27 1017.19 1017.11 1017.04
1018.29 1018.35 1018.37 1018.38 1018.38 1018.37 1018.36 1018.35 1018.34 1018.34 1018.34 1018.35 1018.37 1018.40 1018.44 1018.49 1018.55 1018.60 1018.64 1018.64 1018.62 1018.55 1018.43 1018.28 1018.11 1017.91 1017.73 1017.56 1017.43 1017.33 1017.28 1017.27 1017.28 1017.32 1017.35 1017.39 1017.40 1017.40 1017.38 1017.34 1017.29 1017.23 1017.18
1018.29 1018.41 1018.49 1018.55 1018.58 1018.59 1018.59 1018.57 1018.55 1018.53 1018.52 1018.52 1018.54 1018.58 1018.64 1018.71 1018.78 1018.85 1018.91 1018.92 1018.90 1018.83 1018.72 1018.56 1018.37 1018.16 1017.95 1017.76 1017.59 1017.47 1017.39 1017.35 1017.34 1017.35 1017.37 1017.39 1017.40 1017.39 1017.37 1017.33 1017.28 1017.22 1017.16
1018.19 1018.37 1018.51 1018.60 1018.67 1018.70 1018.71 1018.70 1018.68 1018.67 1018.66 1018.67 1018.69 1018.75 1018.82 1018.90 1018.99 1019.07 1019.13 1019.15 1019.12 1019.05 1018.93 1018.77 1018.57 1018.36 1018.15 1017.96 1017.79 1017.66 1017.56 1017.50 1017.47 1017.46 1017.45 1017.44 1017.43 1017.39 1017.33 1017.26 1017.18 1017.09 1017.00
Thickness
5767 5771 5772 5773 5773 5773 5773 5773 5770 5768 5764 5759 5757 5755 5753 5751 5750 5750 5750 5750 5750 5749 5746 5745 5744 5743 5741 5740 5738 5736 5734 5732 5731 5726 5724 5726 5728 5728 5728 5728 5728 5727 5727
5753 5756 5756 5757 5759 5762 5763 5762 5762 5762 5761 5759 5755 5753 5750 5747 5746 5746 5745 5745 5745 5744 5742 5741 5740 5738 5736 5735 5733 5731 5729 5728 5726 5721 5715 5714 5718 5722 5724 5724 5724 5723 5724
5744 5748 5750 5750 5751 5751 5750 5749 5750 5750 5751 5751 5748 5744 5741 5740 5739 5739 5739 5740 5740 5739 5738 5737 5736 5734 5732 5730 5729 5728 5724 5722 5721 5717 5712 5707 5706 5709 5717 5720 5719 5719 5720
5738 5739 5741 5742 5743 5742 5741 5739 5738 5737 5737 5738 5739 5737 5733 5730 5732 5732 5733 5735 5734 5733 5732 5732 5731 5730 5728 5727 5726 5725 5722 5719 5715 5712 5710 5709 5707 5703 5704 5712 5713 5714 5715
5725 5727 5729 5731 5732 5733 5732 5730 5728 5725 5723 5722 5723 5723 5721 5720 5722 5723 5724 5726 5728 5728 5726 5726 5725 5724 5723 5723 5722 5720 5718 5716 5713 5709 5707 5705 5703 5701 5697 5698 5703 5706 5710
5707 5711 5714 5716 5718 5721 5723 5722 5719 5715 5713 5709 5709 5711 5712 5710 5710 5711 5712 5716 5720 5721 5719 5718 5717 5717 5717 5717 5717 5716 5714 5713 5710 5706 5704 5703 5700 5698 5695 5693 5694 5696 5703
5690 5694 5697 5700 5702 5706 5710 5711 5711 5707 5704 5699 5700 5702 5705 5703 5701 5700 5701 5706 5710 5711 5711 5711 5709 5709 5709 5709 5709 5709 5708 5708 5706 5704 5702 5701 5701 5699 5696 5692 5690 5691 5696
5678 5682 5684 5686 5688 5691 5695 5697 5695 5694 5693 5692 5691 5695 5697 5695 5694 5693 5694 5697 5700 5701 5702 5702 5701 5701 5701 5702 5702 5701 5701 5701 5701 5699 5698 5697 5697 5696 5694 5690 5687 5686 5689
5670 5673 5676 5678 5680 5682 5684 5685 5683 5682 5682 5682 5683 5686 5687 5686 5686 5687 5688 5690 5692 5692 5692 5692 5692 5692 5692 5692 5693 5693 5694 5695 5695 5694 5693 5692 5692 5692 5692 5689 5687 5684 5682
5658 5661 5665 5666 5669 5671 5672 5672 5672 5671 5672 5673 5674 5675 5675 5676 5677 5679 5679 5680 5681 5682 5682 5681 5681 5682 5681 5682 5684 5685 5686 5687 5688 5688 5688 5688 5687 5687 5688 5687 5686 5684 5682
5643 5646 5649 5653 5656 5659 5661 5661 5661 5661 5662 5663 5664 5665 5666 5667 5668 5668 5668 5668 5669 5670 5670 5671 5671 5672 5672 5673 5675 5677 5678 5679 5680 5681 5682 5683 5683 5682 5684 5684 5683 5682 5681
5632 5635 5637 5640 5643 5646 5649 5650 5650 5652 5653 5655 5655 5655 5655 5655 5655 5656 5656 5656 5657 5658 5660 5662 5662 5663 5664 5665 5667 5669 5670 5670 5671 5672 5675 5677 5678 5678 5679 5681 5681 5680 5679
5625 5627 5629 5631 5633 5635 5639 5641 5642 5642 5644 5645 5645 5643 5642 5642 5643 5644 5644 5645 5646 5648 5651 5653 5654 5655 5656 5657 5659 5660 5661 5660 5661 5663 5666 5668 5671 5672 5674 5676 5677 5676 5675
5613 5617 5619 5621 5623 5626 5629 5632 5633 5635 5636 5636 5635 5633 5631 5631 5632 5632 5633 5634 5636 5639 5641 5642 5644 5646 5648 5650 5652 5653 5652 5651 5651 5653 5655 5658 5661 5665 5668 5670 5671 5670 5669
5601 5604 5608 5611 5614 5616 5618 5621 5622 5625 5627 5627 5625 5621 5621 5621 5622 5622 5622 5624 5626 5629 5631 5632 5633 5635 5638 5641 5644 5644 5642 5641 5640 5641 5643 5646 5651 5655 5659 5662 5663 5664 5663
5587 5590 5594 5598 5602 5604 5606 5608 5610 5612 5614 5614 5612 5610 5610 5610 5611 5611 5612 5615 5616 5618 5621 5622 5622 5622 5625 5629 5632 5633 5631 5630 5630 5630 5632 5636 5640 5645 5648 5651 5654 5656 5656
5577 5578 5580 5583 5587 5590 5593 5595 5597 5598 5598 5599 5599 5598 5597 5598 5598 5599 5601 5603 5605 5607 5609 5610 5610 5610 5613 5616 5619 5620 5620 5619 5618 5619 5621 5624 5627 5633 5638 5641 5643 5645 5646
5571 5570 5571 5574 5577 5579 5581 5582 5582 5582 5582 5583 5583 5583 5583 5583 5584 5585 5586 5589 5592 5594 5597 5599 5598 5599 5601 5604 5606 5607 5608 5609 5609 5610 5611 5614 5616 5621 5626 5629 5631 5632 5634
5563 5563 5565 5567 5570 5571 5570 5570 5569 5567 5567 5568 5569 5569 5569 5569 5570 5571 5572 5576 5579 5583 5586 5588 5587 5588 5590 5593 5596 5598 5598 5599 5599 5600 5603 5606 5608 5611 5615 5617 5618 5620 5622
5557 5557 5558 5560 5563 5563 5561 5560 5558 5556 5555 5556 5557 5558 5559 5560 5561 5562 5563 5564 5566 5568 5572 5576 5577 5578 5579 5582 5585 5588 5589 5589 5590 5591 5594 5597 5599 5601 5604 5606 5608 5609 5609
5553 5552 5551 5552 5553 5553 5552 5550 5548 5546 5547 5547 5548 5550 5551 5553 5554 5554 5555 5556 5557 5557 5558 5561 5565 5567 5570 5572 5574 5577 5578 5579 5580 5582 5584 5586 5589 5592 5594 5595 5597 5598 5600
5550 5547 5544 5544 5544 5544 5544 5542 5541 5541 5541 5542 5542 5543 5543 5545 5546 5547 5547 5547 5547 5547 5548 5550 5552 5556 5559 5562 5563 5565 5566 5567 5569 5571 5572 5574 5577 5580 5583 5585 5588 5590 5592
5542 5541 5539 5538 5537 5536 5537 5536 5536 5536 5536 5536 5536 5536 5536 5537 5537 5537 5537 5538 5537 5537 5538 5540 5543 5544 5547 5551 5553 5554 5554 5555 5556 5558 5561 5563 5566 5568 5571 5575 5578 5580 5582
5536 5534 5533 5533 5531 5531 5531 5531 5530 5530 5529 5529 5529 5528 5528 5528 5527 5527 5528 5529 5528 5528 5529 5530 5532 5534 5535 5538 5541 5543 5544 5544 5545 5546 5548 5551 5553 5555 5558 5563 5566 5568 5569
5532 5529 5527 5526 5526 5526 5526 5525 5524 5524 5523 5522 5522 5521 5521 5520 5519 5519 5518 5519 5519 5519 5519 5520 5521 5523 5524 5525 5527 5530 5533 5534 5534 5534 5536 5538 5540 5543 5546 5549 5553 5555 5557
5529 5525 5523 5522 5521 5521 5520 5519 5519 5518 5517 5517 5516 5515 5514 5513 5512 5511 5511 5511 5510 5510 5510 5511 5512 5513 5513 5515 5518 5520 5523 5525 5525 5524 5525 5527 5529 5531 5534 5537 5541 5544 5546